Theta_e
307 311 312 312 312 312 317 318 317 317 321 319 319 319 320 327 325 319 334 336 336 337 336 335 334 333 329 327 325 323 321 320 319 319 319 318 318 318 317 317 317 318 319 319 320 320 319 319 319
310 311 311 306 312 315 312 312 318 317 318 321 318 319 325 332 332 333 334 336 336 336 335 334 333 329 328 325 324 322 320 319 319 318 318 317 317 316 315 316 317 318 318 319 319 319 318 318 318
311 311 307 308 308 313 314 313 318 318 315 316 318 320 325 332 330 334 334 336 337 335 334 332 329 327 327 325 323 320 319 319 318 317 317 315 315 314 315 316 317 317 317 317 317 317 317 316 316
310 306 301 307 310 311 312 315 316 317 317 315 318 327 325 328 331 332 337 337 335 333 333 328 327 326 326 324 321 319 319 318 317 316 315 314 314 314 315 315 315 315 315 316 316 315 315 315 315
307 302 306 307 306 307 307 312 314 317 316 315 318 324 330 330 331 335 336 334 332 333 329 327 326 326 326 323 320 319 318 316 315 313 313 314 313 312 312 313 314 315 315 315 315 315 315 315 314
305 301 305 306 306 306 305 306 310 312 314 313 321 324 328 330 333 335 334 333 331 329 327 326 325 325 324 322 319 318 316 314 311 310 311 311 311 311 312 314 315 315 315 315 314 315 314 313 314
305 303 305 306 306 308 308 306 309 311 314 315 319 326 328 328 332 334 333 331 329 327 326 325 324 324 322 319 316 314 310 307 307 306 305 306 305 308 309 311 314 314 314 314 314 313 313 313 313
302 304 308 306 307 309 309 308 311 310 313 311 319 326 330 327 332 332 330 329 328 327 325 324 323 323 321 316 311 306 305 307 307 305 305 305 307 308 309 310 312 313 313 314 313 313 312 312 311
301 304 306 308 307 308 305 309 307 308 312 319 326 321 325 329 331 330 328 327 326 325 324 323 323 322 319 314 308 304 306 308 307 305 305 305 307 309 310 310 311 310 311 313 312 312 311 311 311
303 304 306 305 306 307 306 305 305 308 309 314 324 326 326 327 328 326 325 324 325 324 324 323 323 321 318 314 308 304 308 308 307 304 305 306 309 309 310 311 310 310 311 311 311 311 311 311 311
303 303 303 306 307 306 307 306 305 307 309 308 314 327 324 325 326 326 325 325 325 325 323 323 323 320 317 314 307 307 308 309 307 304 305 306 309 310 311 310 310 310 311 311 311 312 312 311 311
307 304 304 307 307 307 307 306 306 305 307 306 307 324 326 325 324 325 325 325 325 325 324 323 322 320 317 313 307 308 309 309 307 304 305 307 309 310 310 309 310 311 310 312 312 312 311 311 310
307 307 305 307 306 306 305 305 305 304 302 302 310 324 326 326 325 325 325 325 325 325 324 323 322 319 318 312 309 309 310 309 307 304 305 307 309 310 310 310 310 311 310 311 312 312 311 312 313
306 306 307 305 306 305 306 305 304 304 303 302 301 318 323 325 326 325 325 325 325 326 325 324 323 320 318 313 310 309 310 309 307 304 305 307 310 310 309 310 310 311 311 311 311 312 312 314 313
306 306 304 304 304 305 303 304 304 304 305 303 302 300 315 322 324 325 326 325 326 326 326 325 323 321 318 313 310 310 310 308 307 304 305 307 310 310 310 310 310 311 311 311 312 312 313 314 315
305 305 304 303 302 304 303 303 302 302 302 302 301 299 299 316 320 323 325 326 326 325 325 325 322 320 316 313 310 310 310 308 306 304 305 307 310 310 310 310 310 311 311 311 312 313 313 314 314
303 301 303 303 301 304 302 302 303 302 302 302 301 300 299 299 306 320 323 324 325 326 325 324 321 319 315 312 310 310 310 308 306 305 305 307 310 310 310 310 310 310 310 311 312 313 313 314 314
301 303 301 302 303 304 304 303 302 302 303 301 300 300 299 300 300 306 320 323 323 324 324 325 322 319 314 311 310 310 309 307 306 305 305 307 310 310 310 310 310 310 310 311 312 313 313 313 314
300 302 302 302 302 305 303 303 304 302 301 299 301 302 300 300 300 303 307 320 323 324 323 324 322 318 313 310 310 309 308 307 306 305 305 307 310 310 310 310 310 310 310 311 312 314 313 313 313
303 303 303 303 302 303 302 301 302 300 301 301 302 302 301 301 300 300 302 313 322 323 323 321 321 318 313 313 311 310 308 307 306 305 305 306 309 310 310 310 310 310 311 311 312 314 314 312 313
302 303 303 304 303 303 302 301 302 301 300 301 300 301 302 302 301 300 301 314 321 321 321 321 319 318 314 313 311 310 307 307 306 305 306 306 308 309 310 310 310 310 310 311 312 314 314 313 312
304 303 304 305 305 305 301 304 302 302 302 301 301 298 299 299 298 299 303 316 320 321 321 320 318 317 314 313 311 310 308 306 306 305 305 306 307 309 310 310 310 310 310 311 312 314 314 314 313
307 305 305 305 305 305 304 303 302 301 303 304 306 302 299 298 297 299 304 314 320 320 320 318 317 316 315 313 312 310 309 308 307 305 304 305 307 308 310 310 310 310 310 311 312 313 314 314 314
305 308 307 305 304 304 305 306 305 304 305 305 304 302 300 297 296 297 305 315 319 319 318 317 316 314 314 312 311 311 310 308 307 305 304 305 307 307 310 310 310 310 310 310 311 313 314 314 314
305 306 304 305 301 307 303 303 310 306 304 303 304 302 301 298 295 296 309 315 317 317 316 316 315 313 313 312 312 311 311 309 307 304 304 304 306 307 310 309 310 311 310 310 311 312 313 314 313
303 306 307 310 306 310 302 306 306 304 306 303 302 301 301 303 297 297 307 314 316 316 315 315 314 313 313 313 312 312 311 309 307 304 304 304 306 307 309 309 310 310 310 310 310 312 313 314 313
304 307 306 306 297 308 306 304 305 305 304 303 302 301 302 302 298 297 302 311 315 315 314 314 313 312 312 312 312 312 310 309 307 303 305 304 305 307 309 310 310 310 310 310 310 311 313 313 313
305 305 309 305 304 309 309 306 310 309 307 305 304 302 302 303 300 299 300 306 313 313 313 313 313 314 314 313 313 312 309 308 306 304 305 304 305 307 309 309 310 310 310 310 310 310 311 313 312
304 307 306 307 307 310 306 306 303 309 307 307 305 303 302 303 302 301 302 306 310 311 312 312 312 312 312 313 312 311 309 307 306 304 305 304 306 307 308 309 309 310 310 310 310 309 311 312 311
303 305 304 309 306 304 306 305 305 305 305 306 306 303 301 302 303 303 304 306 307 308 310 310 310 311 312 312 311 310 309 307 305 304 305 305 306 306 307 309 310 310 311 310 310 310 310 311 311
Wind_Speed
12 11 5 4 4 4 4 6 3 2 0 1 1 2 6 4 3 3 1 14 21 26 21 18 16 14 6 8 9 8 8 7 8 8 7 7 7 7 7 7 6 6 5 5 6 6 7 7 8
10 6 3 2 4 1 5 4 4 4 4 7 5 3 6 2 2 5 12 14 24 25 21 18 14 7 7 10 10 9 8 8 8 7 7 6 6 5 6 6 6 6 6 6 6 6 7 8 9
5 2 3 4 3 5 4 5 4 3 6 3 3 5 2 3 2 12 7 24 27 25 22 18 11 9 10 11 10 9 8 8 7 7 6 5 5 5 6 6 5 6 6 6 7 7 8 8 8
1 5 4 4 5 6 4 4 3 5 1 3 4 6 2 1 9 8 24 29 28 24 22 17 13 11 13 12 11 9 9 8 7 6 5 5 4 5 6 6 6 7 7 7 7 8 8 8 8
5 3 3 1 5 6 5 3 2 3 2 3 3 4 2 3 6 21 29 29 27 25 20 17 14 13 14 13 11 10 9 8 7 6 6 6 6 6 6 6 6 7 8 8 8 8 9 9 9
4 3 3 4 5 5 7 6 3 2 1 4 5 5 2 6 20 28 29 29 26 25 20 16 13 15 15 13 12 11 10 8 6 6 5 5 5 7 7 7 8 8 9 9 10 10 12 13 10
6 4 4 3 4 5 4 5 4 3 3 2 9 5 0 6 19 28 29 27 25 23 20 17 16 16 16 14 12 10 8 6 5 4 4 4 5 5 7 7 8 9 10 11 12 13 14 10 10
5 4 3 4 4 5 3 5 1 3 3 4 2 5 4 6 25 27 26 24 23 21 19 19 18 18 16 13 11 8 7 6 4 4 4 4 5 5 7 7 8 8 12 11 12 12 12 13 13
3 4 3 4 5 5 5 4 3 4 2 3 1 4 2 26 28 26 23 22 22 20 19 20 21 18 16 13 11 9 7 6 4 3 3 3 4 6 6 7 8 10 11 10 10 11 13 14 12
4 4 9 5 3 3 4 3 4 4 2 1 1 3 12 28 26 21 20 20 25 23 21 21 21 19 17 14 12 10 8 6 3 3 3 3 5 6 6 7 8 10 10 10 12 13 15 14 13
3 6 6 4 3 2 2 4 2 1 4 6 6 6 7 16 17 19 20 26 30 26 23 22 21 19 17 15 13 12 9 6 3 3 3 4 4 5 6 8 8 10 9 12 13 15 20 21 19
2 6 5 3 3 1 3 3 5 5 5 3 2 8 11 13 13 20 21 25 27 27 26 24 22 21 18 15 14 11 9 6 3 3 3 3 4 5 7 8 8 9 10 12 14 17 20 22 19
4 3 5 3 3 5 4 7 6 8 11 8 3 8 12 12 15 19 21 24 28 29 28 27 24 23 19 17 15 13 10 7 4 3 4 4 4 4 7 8 8 9 10 13 14 16 19 18 16
3 4 4 4 5 3 5 4 5 8 6 8 8 11 12 14 18 15 21 25 30 30 30 28 27 24 21 18 16 14 11 8 6 4 4 5 4 4 6 8 8 8 9 12 13 15 15 18 15
1 2 4 6 4 6 7 7 10 14 4 8 8 7 10 14 18 23 31 29 34 33 30 31 29 27 24 20 17 15 12 9 7 5 5 5 4 4 6 7 6 8 8 11 12 14 14 16 18
3 0 1 4 7 5 8 9 10 3 7 11 9 8 9 12 19 25 29 31 32 31 32 31 31 29 26 22 19 17 14 11 8 7 6 5 5 3 4 6 6 7 7 10 12 14 15 17 23
1 3 6 7 8 3 5 8 7 1 3 7 7 7 7 9 11 24 30 33 33 35 34 34 33 31 28 23 20 18 14 12 10 8 8 7 6 3 4 5 5 7 6 8 11 13 15 12 20
6 5 4 5 4 3 4 13 9 7 5 9 9 9 9 9 13 23 32 35 33 33 34 36 35 33 29 24 21 18 16 14 11 9 9 8 7 4 3 4 5 6 6 7 11 11 14 10 14
5 4 5 4 2 4 7 10 13 11 4 10 14 14 9 12 10 20 29 32 32 32 34 37 39 36 33 29 26 21 20 16 13 10 9 8 7 6 4 5 5 6 6 8 11 10 11 13 4
5 6 5 3 3 4 4 11 14 8 10 12 16 15 15 9 7 7 19 29 32 36 37 37 40 39 36 33 30 24 22 17 14 13 11 10 8 6 4 4 5 5 5 6 11 12 9 11 9
8 7 5 4 2 2 5 7 11 7 8 14 11 17 15 16 13 8 10 23 29 31 35 40 42 42 39 36 30 21 21 14 16 16 14 12 10 7 5 4 6 5 4 5 9 11 11 8 13
13 9 5 3 3 4 1 6 6 6 9 8 13 10 15 13 8 8 9 18 26 30 35 37 41 42 40 36 34 30 29 18 20 20 17 14 12 9 6 5 6 5 3 4 7 10 10 7 6
8 9 11 6 3 2 3 2 7 3 7 15 16 11 12 12 10 11 13 23 27 30 35 37 40 40 40 38 36 32 28 24 17 19 18 16 14 10 8 6 6 5 3 5 6 8 9 9 10
8 8 6 5 3 3 8 7 5 6 10 9 8 5 7 9 10 8 14 23 25 29 32 36 39 39 39 39 36 33 29 24 17 21 21 19 16 13 10 7 7 6 5 5 5 5 7 8 7
5 10 2 2 1 7 1 5 14 9 10 9 8 7 6 6 7 8 11 15 23 29 34 36 38 35 38 38 37 34 29 26 22 25 24 22 19 16 13 9 8 7 5 3 4 2 3 5 9
9 10 6 7 5 3 3 8 7 14 15 5 6 7 7 3 5 8 10 15 23 29 33 35 37 35 39 39 37 33 28 26 23 23 24 22 21 17 14 11 10 9 7 3 2 3 3 4 8
8 12 7 6 2 3 5 7 9 12 14 7 8 6 8 7 5 8 8 15 21 25 29 33 33 32 37 37 36 32 28 25 23 22 21 20 18 17 15 12 12 11 7 5 3 5 3 3 6
15 10 4 2 5 4 5 6 6 5 10 7 6 8 7 4 5 6 6 10 16 21 25 30 34 37 37 35 35 33 30 25 21 20 22 20 19 18 16 14 13 12 10 6 4 6 3 4 8
5 13 4 5 4 5 2 6 9 17 14 10 7 5 7 7 6 6 6 12 18 22 26 29 32 33 34 35 34 33 30 25 22 22 22 21 20 20 18 15 14 13 13 10 6 6 7 4 8
4 7 5 6 9 2 3 6 3 9 6 4 4 6 6 4 6 6 6 11 15 20 25 27 29 31 33 34 33 32 31 28 25 24 23 22 21 21 19 17 15 14 13 11 9 9 9 8 10
Wind_Direction
329 335 325 40 49 60 265 262 262 173 54 304 10 128 139 55 131 192 116 162 171 163 161 162 163 154 158 150 134 124 114 103 93 84 74 66 58 46 38 34 31 24 14 2 354 345 337 336 336
334 339 30 84 93 63 261 258 238 204 144 127 78 68 37 80 99 124 131 163 166 160 159 162 164 169 199 155 140 128 115 105 95 87 78 66 57 47 38 33 25 19 10 3 356 344 337 336 331
331 22 85 97 121 194 229 228 216 156 150 204 86 58 103 155 41 154 168 171 163 159 160 160 177 185 174 149 138 127 115 107 99 89 80 68 55 45 44 39 27 21 17 10 0 350 344 337 328
4 19 39 99 231 255 230 241 222 145 192 97 129 76 41 311 162 170 157 161 161 160 162 158 168 172 156 147 138 127 122 115 106 95 81 70 58 56 49 45 36 30 18 9 358 350 338 327 324
56 56 69 287 257 267 259 245 173 216 179 133 153 180 107 8 161 158 158 162 161 160 159 162 164 172 157 149 141 136 130 123 113 98 84 72 60 62 49 47 41 32 24 19 2 355 348 339 337
52 95 76 242 256 266 286 259 171 232 205 153 83 115 170 152 150 159 164 164 164 160 161 168 167 174 161 153 146 140 134 127 115 101 95 77 69 61 54 48 44 36 22 5 356 359 353 349 339
120 93 200 211 254 286 245 320 168 215 172 212 149 119 295 173 165 162 167 166 165 167 170 165 170 173 168 165 156 147 141 132 114 100 86 71 69 68 49 48 36 33 21 19 16 13 2 355 341
107 102 171 239 228 262 322 334 108 194 213 105 127 183 204 190 167 164 166 166 168 173 176 168 171 178 176 171 164 154 145 137 112 93 82 74 73 62 54 47 39 24 20 14 12 3 352 1 1
138 81 211 239 180 253 351 19 4 297 142 58 54 149 325 160 166 164 163 167 171 172 178 177 179 182 181 176 167 162 153 142 119 94 88 80 71 57 58 46 37 35 30 25 18 6 360 356 349
105 141 211 215 222 249 303 15 314 2 6 174 101 51 131 154 164 164 170 173 177 178 180 185 186 185 185 181 174 170 161 152 126 105 98 88 78 67 59 46 36 39 33 24 19 14 7 357 2
188 195 201 230 230 214 273 312 329 293 250 217 195 163 145 154 173 178 184 183 185 186 185 189 188 189 189 186 180 176 172 162 135 120 110 102 90 78 57 39 61 41 38 30 25 29 20 18 12
180 233 189 215 202 244 259 308 295 206 233 121 53 172 164 175 185 190 189 190 190 191 192 190 191 190 187 186 181 181 176 170 144 129 124 114 97 77 56 55 59 42 47 33 34 31 26 19 14
215 233 201 230 221 255 306 249 245 255 249 225 112 156 188 194 198 201 199 198 197 196 195 194 192 192 188 186 185 186 181 174 166 144 136 120 103 78 58 77 59 54 45 37 36 31 24 23 23
241 220 274 248 231 249 207 258 144 260 252 238 197 202 200 201 204 194 198 200 201 202 199 196 196 196 193 191 192 189 187 180 179 164 150 135 111 83 64 92 68 56 46 34 29 22 26 18 30
198 257 298 242 216 233 166 269 233 242 231 263 242 224 220 215 204 207 208 203 203 205 201 200 198 198 198 195 193 191 189 187 182 170 161 146 119 96 74 91 68 52 48 28 37 33 28 30 50
189 75 210 265 160 239 148 260 263 253 203 251 249 246 232 223 216 214 217 213 208 202 200 198 198 196 196 195 196 192 189 192 189 171 166 156 137 105 74 95 63 53 46 30 39 34 34 42 54
320 214 210 304 193 141 173 259 256 75 150 266 257 249 243 242 236 222 218 217 212 209 202 197 196 194 194 194 194 192 192 192 191 179 166 164 153 126 79 103 68 53 31 37 44 36 29 39 53
198 210 233 232 205 163 201 265 268 267 289 264 267 266 256 246 239 225 219 218 218 210 206 200 196 194 192 190 188 188 191 192 192 184 171 169 168 149 109 109 97 51 42 58 44 44 37 48 62
158 194 211 230 241 168 225 253 258 272 232 263 272 270 252 243 247 235 221 211 208 206 201 199 195 192 188 183 182 186 190 192 189 186 178 178 180 163 134 118 109 66 60 44 36 46 32 43 75
168 183 220 282 264 172 257 264 270 254 254 236 245 255 251 248 227 211 209 198 193 193 196 193 195 191 191 193 191 191 190 195 192 189 183 184 187 180 158 130 130 88 67 52 38 44 43 36 47
212 191 186 198 2 264 327 272 255 265 244 263 248 244 255 238 236 199 179 188 186 186 185 190 192 193 193 195 190 188 185 189 191 191 187 188 187 185 178 159 145 111 75 60 39 44 53 50 49
215 180 180 215 117 236 119 283 289 261 269 234 253 223 237 239 222 201 175 179 182 185 187 188 192 193 194 194 192 192 187 183 201 197 187 186 186 184 178 163 153 131 99 102 51 45 50 51 84
214 159 189 169 176 6 204 303 271 273 273 260 261 234 229 226 200 201 185 180 182 179 182 186 192 193 195 195 197 196 197 201 199 191 187 186 185 184 176 174 165 153 147 123 65 61 61 61 84
137 102 67 60 97 281 194 184 234 215 215 251 256 258 245 231 208 197 181 169 171 173 176 182 188 191 197 196 198 201 203 199 195 187 186 186 185 183 180 174 172 168 140 108 99 51 58 79 94
158 141 51 16 356 233 232 188 250 255 256 232 264 285 319 251 186 171 163 164 162 166 173 181 184 186 196 197 199 203 206 203 201 192 189 185 185 186 180 172 172 164 137 122 122 89 59 78 117
175 168 151 182 201 196 126 229 249 236 261 246 248 257 284 239 173 182 173 172 173 173 174 177 181 185 194 198 201 203 205 204 206 202 196 193 191 187 178 171 173 170 157 158 140 122 79 106 130
195 202 148 103 19 73 208 282 293 266 268 243 231 237 246 249 188 182 171 171 170 173 176 178 178 185 191 196 199 201 203 205 207 203 200 195 193 188 181 176 171 170 172 170 173 134 88 120 141
185 143 154 10 139 228 261 275 233 278 263 270 252 220 229 230 154 153 156 155 169 171 172 180 184 190 194 195 199 199 200 203 205 200 195 193 189 189 185 180 174 176 174 186 179 156 139 138 150
147 188 172 125 163 175 198 253 217 220 221 218 233 198 213 211 173 160 152 156 162 168 173 179 184 189 192 195 196 197 198 201 200 200 196 195 191 189 188 184 177 182 179 180 185 179 160 156 158
146 173 156 168 218 219 153 266 235 238 275 204 200 192 211 181 156 142 141 141 151 161 172 179 186 192 194 196 195 194 196 196 198 198 196 194 193 190 189 186 182 183 181 179 186 183 176 177 169